Home   Weather   Kassel   Past weeks

Flag for Germany Past Weather in Kassel, Hesse, Germany — Yesterday and Last 2 Weeks

Now
50 °F

Light rain. Mostly cloudy.


Feels Like: 45 °F
Forecast: 40 / 49 °F
Wind: 15 mph from Southwest

Location: Kassel / Calden

Current Time: Feb 22, 2017 at 2:04:30 pm

Latest Report: Feb 22, 2017 at 1:20 pm


Visibility: N/A

Pressure: 29.65 "Hg

Humidity: 88%

Dew Point: 46 °F

Location of KasselLocation

Past Weather in Kassel — Graph

°F

Kassel Temperature Yesterday

Maximum temperature yesterday: 48 °F (at 12:20 am)
Minimum temperature yesterday: 41 °F (at 7:50 pm)
Average temperature yesterday: 46 °F

High & Low Weather Summary for the Past Weeks

 TemperatureHumidityPressure
High50 °F (Feb 20, 9:50 pm)100% (Feb 11, 7:20 am)30.54 "Hg (Feb 11, 7:20 am)
Low25 °F (Feb 8, 10:20 pm)43% (Feb 14, 3:20 pm)29.65 "Hg (Feb 22, 9:50 am)
Average36 °F83%30.23 "Hg
* Reported Feb 7 12:20 pm — Feb 22 12:50 pm, Kassel, Weather by CustomWeather, © 2017

Note: Actual official high and low records may vary slightly from our data, if they occured in-between our weather recording intervals... More about our weather records

Advertising

Kassel Weather History for the Previous 24 Hours

Scroll right to see more
 ConditionsComfort  
Time TempWeatherWind HumidityBarometerVisibility
12:50 pm
Wed, Feb 22
50 °FLight rain. Mostly cloudy.14 mph88%29.65 "HgN/A
12:20 pm50 °FLight rain. Broken clouds.16 mph88%29.65 "HgN/A
11:50 am50 °FLight rain. Mostly cloudy.17 mph88%29.68 "HgN/A
11:20 am48 °FLight rain. Mostly cloudy.17 mph94%29.65 "Hg5 mi
10:50 am48 °FLight rain. Mostly cloudy.16 mph87%29.68 "HgN/A
10:20 am48 °FLight rain. Mostly cloudy.15 mph87%29.68 "Hg3 mi
9:50 am50 °FOvercast.17 mph82%29.65 "HgN/A
9:20 am48 °FLight rain. Mostly cloudy.16 mph87%29.68 "HgN/A
8:50 am48 °FLight rain. Mostly cloudy.17 mph87%29.68 "HgN/A
8:20 am48 °FLight rain. Mostly cloudy.18 mph87%29.68 "HgN/A
7:50 am50 °FMostly cloudy.16 mph82%29.68 "HgN/A
7:20 am50 °FPassing clouds.13 mph88%29.68 "HgN/A
3:20 am48 °FPassing clouds.16 mph94%29.74 "HgN/A
2:50 am48 °FPassing clouds.15 mph94%29.74 "HgN/A
2:20 am48 °FPassing clouds.12 mph94%29.77 "HgN/A
1:50 am46 °FPartly cloudy.12 mph93%29.80 "HgN/A
1:20 am46 °FPartly cloudy.8 mph93%29.83 "HgN/A
12:20 am46 °FPassing clouds.9 mph87%29.86 "HgN/A
11:50 pm
Tue, Feb 21
45 °FPassing clouds.10 mph87%29.86 "HgN/A
11:20 pm45 °FPassing clouds.9 mph81%29.89 "HgN/A
10:50 pm45 °FPassing clouds.9 mph81%29.89 "HgN/A
10:20 pm43 °FPassing clouds.7 mph81%29.89 "HgN/A
9:50 pm41 °FPassing clouds.7 mph81%29.92 "HgN/A
9:20 pm41 °FPassing clouds.5 mph81%29.92 "HgN/A
8:50 pm41 °FPassing clouds.1 mph87%29.92 "HgN/A
8:20 pm41 °FPassing clouds.2 mph87%29.92 "HgN/A
7:50 pm41 °FPassing clouds.3 mph87%29.92 "HgN/A
7:20 pm43 °FPassing clouds.7 mph81%29.95 "HgN/A
6:50 pm45 °FPassing clouds.6 mph76%29.95 "HgN/A
6:20 pm45 °FPassing clouds.5 mph76%29.95 "HgN/A
5:50 pm46 °FPassing clouds.13 mph71%29.92 "HgN/A
5:20 pm46 °FPartly sunny.8 mph76%29.92 "HgN/A
4:50 pm46 °FScattered showers. Partly sunny.9 mph76%29.92 "HgN/A
4:20 pm46 °FScattered showers. Partly sunny.13 mph76%29.92 "HgN/A
3:50 pm48 °FScattered showers. Broken clouds.14 mph71%29.92 "HgN/A
3:20 pm48 °FBroken clouds.17 mph71%29.92 "HgN/A
2:50 pm48 °FPartly sunny.17 mph71%29.92 "HgN/A
2:20 pm48 °FBroken clouds.17 mph71%29.92 "HgN/A
Weather by CustomWeather, © 2017

See weather overviewHow to use our weather pages